FENGYUN 1C DEB

Satellite information

Favourite Embed

Satellite Type and Status

DEBRISIN ORBIT

Key statistics

Satellite FENGYUN 1C DEB at a glance.

Uptime

9656

Days in orbit

Revolutions

≈ 14.1

Per day

Orbit

SSO

Sun Synchronous Orbit

Inclination

98.7

Latest

Satellite identification and parameters

Extended collection of information and parameters for FENGYUN 1C DEB.

Object identification

Identified? True

Debris? True

Object name: FENGYUN 1C DEB

International designator: 1999-025DPH

Object number (NORAD): 35201

Object ID (CCSDS): 35201

Country: PEOPLES REPUBLIC OF CHINA (PRC)

Current information (Y/N): Y

RCS size: SMALL

Orbital parameters

Period: 102.054 minutes

Inclination: 98.7116 deg

SMA: 7234.024 km

Apoapsis: 861.495 km

Periapsis: 850.283 km

RAAN: 299.5981 deg

Eccentricy: 0.00077492

Argument of periapsis: 61.4983 deg

Mean anomaly: 119.9915 deg

Mean motion: 14.1101892 rev/day

Mean motion (dot): 0.0000019 rev/day2

B* drag term: 0.00012941541 1/REarth

Two-line elements (TLE)

Creation date: Oct. 16, 2025, 2:37 a.m.

Reference frame: TEME

Reference center: EARTH

Epoch: Oct. 15, 2025, 7:20 p.m. UTC

TLE line 0: 0 FENGYUN 1C DEB

TLE line 1: 1 35201U 99025DPH 25288.80615199 .00000190 00000-0 12942-3 0 9991

TLE line 2: 2 35201 98.7116 299.5981 0007749 61.4983 119.9915 14.11018920862026

Live tracking on map

Real-time ground track for satellite FENGYUN 1C DEB.

In-orbit conjunctions

A list of the most updated potential collisions computed for object FENGYUN 1C DEB.

Target Orbit TCA Probability of collision Miss distance Type
FENGYUN 1C DEB SSO 2025-01-11 06:13:32 0.0001716062 120.0 (m) DEBRIS
FENGYUN 1C DEB SSO 2024-09-27 22:05:35 0.0001649966 763.0 (m) DEBRIS
SL-16 DEB LEO 2024-09-21 14:21:09 0.0001176744 127.0 (m) DEBRIS

Associated space launch

Chinese polar orbiting meteorological satellite

FENGYUN 1C DEB was lifted into orbit during the mission ‘Long March 4B | Feng Yun 1C’, on board a Long March 4B space rocket.

The launch took place on May 10, 1999, 1:33 a.m. from Launch Complex 7.

For more information about the launch, click the button.

Launch to space Long March 4B | Feng Yun 1C
Long March 4B | Feng Yun 1C

Agency: N/A

Status: Launch Successful

Launch date: May 10, 1999, 1:33 a.m. UTC

Rocket: Long March 4B

Launch pad: Launch Complex 7

Location: Taiyuan Satellite Launch Center, People's Republic of China

...

Latest news about this satellite

There are no fresh news available about this satellite. Check back as we update our databases every day.


Newsletter sign-up

Weekly statistics, charts and insights to help you stay on top of the space industry.